Starlink 3998

operational
NORAD ID: 52610 Int'l Des: 2022-052 Owner: SPXS Country: US Constellation: starlink
LEOCIRCULAR

About Starlink 3998

Description loading...

Live Position

Loading 3D Globe...

Upcoming Passes

Altitude History

Altitude vs Time

uPlot chart will show altitude changes over time

Two-Line Element Set

1 52610U 22052N 25340.42060967 -.00004159 00000-0 -24345-3 0 9995
2 52610 53.2186 342.8228 0001485 97.4776 262.6384 15.08825863196708
Epoch: Dec 6, 2025 • Age: 21 hours

Current Status

Altitude 540.3 km
Velocity 7.60 km/s
Sub-Earth Point 23.39°N, 178.01°E
Launch Date May 14, 2022
Age 3.5 years
Type internet

Technical Details

Classification Payload
Mass 297.00 kg
Dry Mass 275.00 kg
Total Mass 297.00 kg
Length 0.20 m
Diameter 2.80 m
Span 9.00 m
Shape Box + pan
Manufacturer SPXS
Bus Type Starlink
Phase Status In Orbit
Owner/State SPXS/US

Large Constellations

Loading constellations...